User: anonymous   Login
Location: Bouchavesnes-Bergen
(49.9859°N, 2.9203°E)
Time: 21:52:36
(UTC+00:00)
Language:

SKYMED 2 - Orbit

View from above orbital plane
View from above orbital plane
View from above satellite
View from above satellite

Ground track
Ground track

The orbit data is extracted from the following two-line orbital elements,

1 32376U 07059A   21135.05580416 -.00000258  00000-0 -25812-4 0  9992
2 32376  97.8892 319.4262 0001528  95.1603 264.9787 14.82154424726691
Epoch (UTC): 15 May 2021 01:20:21
Eccentricity: 0.0001528
inclination: 97.8892°
perigee height: 621 km
apogee height: 623 km
right ascension of ascending node: 319.4262°
argument of perigee: 95.1603°
revolutions per day: 14.82154424
mean anomaly at epoch: 264.9787°
orbit number at epoch: 72669

The dashed part of the orbit path shows where the satellite is in the earth's shadow,  

DLR